| time (UTC) | temp F | wind direction | speed knots | gust knots | rain 1hr in | rain 24hr in | rain mn in | humidity % | barometer mb |
| 20260505223455 | 50 | 346 | 1.7 | 1.7 | 0.00 | 0.00 | 0.00 | 83 | 1011.4 |
| 20260505222533 | 49 | 331 | 1.7 | 1.7 | 0.00 | 0.00 | 0.00 | 83 | 1011.4 |
| 20260505221452 | 49 | 341 | 0.9 | 3.5 | 0.00 | 0.00 | 0.00 | 83 | 1011.5 |
| 20260505220451 | 49 | 0.0 | 0.9 | 0.00 | 0.00 | 0.00 | 83 | 1011.5 | |
| 20260505215449 | 49 | 0.0 | 0.9 | 0.00 | 0.00 | 0.00 | 83 | 1011.6 | |
| 20260505214448 | 49 | 156 | 0.9 | 0.9 | 0.00 | 0.00 | 0.00 | 83 | 1011.5 |
| 20260505213447 | 49 | 0.0 | 1.7 | 0.00 | 0.00 | 0.00 | 83 | 1011.5 | |
| 20260505212526 | 49 | 0.0 | 0.0 | 0.00 | 0.00 | 0.00 | 83 | 1011.6 | |
| 20260505211445 | 50 | 332 | 2.6 | 3.5 | 0.00 | 0.00 | 0.00 | 83 | 1011.7 |
| 20260505210444 | 50 | 0.0 | 2.6 | 0.00 | 0.00 | 0.00 | 83 | 1011.7 | |
| 20260505205442 | 50 | 344 | 2.6 | 2.6 | 0.00 | 0.00 | 0.00 | 82 | 1011.6 |
| 20260505204441 | 51 | 334 | 4.3 | 5.2 | 0.00 | 0.00 | 0.00 | 82 | 1011.5 |
| 20260505203440 | 51 | 335 | 1.7 | 2.6 | 0.00 | 0.00 | 0.00 | 82 | 1011.8 |
| 20260505202439 | 51 | 5 | 1.7 | 1.7 | 0.00 | 0.00 | 0.00 | 82 | 1011.9 |
| 20260505201518 | 51 | 338 | 5.2 | 6.1 | 0.00 | 0.00 | 0.00 | 81 | 1011.8 |
| 20260505200437 | 51 | 342 | 0.9 | 2.6 | 0.00 | 0.00 | 0.00 | 81 | 1011.8 |
| 20260505195435 | 51 | 329 | 1.7 | 4.3 | 0.00 | 0.00 | 0.00 | 81 | 1011.9 |
| 20260505194434 | 52 | 0.0 | 2.6 | 0.00 | 0.00 | 0.00 | 81 | 1011.6 | |
| 20260505193433 | 52 | 311 | 2.6 | 2.6 | 0.00 | 0.00 | 0.00 | 81 | 1011.6 |
| 20260505192431 | 52 | 350 | 3.5 | 6.1 | 0.00 | 0.00 | 0.00 | 80 | 1011.6 |
| 20260505191430 | 52 | 335 | 1.7 | 4.3 | 0.00 | 0.00 | 0.00 | 80 | 1011.4 |
| 20260505190429 | 53 | 347 | 3.5 | 8.7 | 0.00 | 0.00 | 0.00 | 80 | 1011.3 |
| 20260505185507 | 53 | 339 | 1.7 | 3.5 | 0.00 | 0.00 | 0.00 | 80 | 1011.2 |
| 20260505184427 | 53 | 356 | 1.7 | 4.3 | 0.00 | 0.00 | 0.00 | 79 | 1011.0 |
| 20260505183505 | 54 | 313 | 3.5 | 5.2 | 0.00 | 0.00 | 0.00 | 78 | 1011.2 |
| 20260505182424 | 54 | 299 | 3.5 | 5.2 | 0.00 | 0.00 | 0.00 | 77 | 1010.9 |
| 20260505181423 | 55 | 336 | 4.3 | 4.3 | 0.00 | 0.00 | 0.00 | 76 | 1010.9 |
| 20260505180422 | 55 | 0 | 2.6 | 3.5 | 0.00 | 0.00 | 0.00 | 76 | 1010.8 |
| 20260505175420 | 55 | 321 | 3.5 | 6.1 | 0.00 | 0.00 | 0.00 | 75 | 1010.8 |
| 20260505174419 | 55 | 323 | 3.5 | 10.4 | 0.00 | 0.00 | 0.00 | 75 | 1010.9 |
| 20260505173417 | 55 | 336 | 5.2 | 6.1 | 0.00 | 0.00 | 0.00 | 74 | 1010.7 |
| 20260505172416 | 56 | 339 | 2.6 | 3.5 | 0.00 | 0.00 | 0.00 | 74 | 1011.0 |
| 20260505171415 | 56 | 333 | 6.1 | 7.0 | 0.00 | 0.00 | 0.00 | 73 | 1010.9 |
| 20260505170414 | 56 | 340 | 5.2 | 9.6 | 0.00 | 0.00 | 0.00 | 73 | 1011.1 |
| 20260505165413 | 57 | 33 | 0.9 | 1.7 | 0.00 | 0.00 | 0.00 | 73 | 1011.1 |
| 20260505164432 | 57 | 358 | 1.7 | 2.6 | 0.00 | 0.00 | 0.00 | 72 | 1011.2 |
| 20260505163410 | 57 | 359 | 3.5 | 3.5 | 0.00 | 0.00 | 0.00 | 73 | 1011.2 |
| 20260505162429 | 57 | 334 | 4.3 | 6.1 | 0.00 | 0.00 | 0.00 | 73 | 1011.2 |
| 20260505161408 | 58 | 345 | 6.1 | 9.6 | 0.00 | 0.00 | 0.00 | 73 | 1011.2 |
| 20260505160407 | 58 | 325 | 3.5 | 3.5 | 0.00 | 0.00 | 0.00 | 73 | 1011.1 |
| 20260505152402 | 59 | 66 | 1.7 | 4.3 | 0.00 | 0.00 | 0.00 | 75 | 1011.5 |
| 20260505151400 | 59 | 34 | 0.9 | 0.9 | 0.00 | 0.00 | 0.00 | 77 | 1011.4 |
| 20260505150359 | 59 | 0.0 | 0.0 | 0.00 | 0.00 | 0.00 | 76 | 1011.5 | |
| 20260505140352 | 58 | 0.0 | 1.7 | 0.00 | 0.00 | 0.00 | 78 | 1011.8 | |
| 20260505124342 | 56 | 10 | 2.6 | 2.6 | 0.00 | 0.00 | 0.00 | 81 | 1012.6 |
| 20260505123341 | 56 | 119 | 0.9 | 2.6 | 0.00 | 0.00 | 0.00 | 81 | 1012.6 |
| 20260505122340 | 56 | 0 | 0.9 | 1.7 | 0.00 | 0.00 | 0.00 | 82 | 1012.4 |
| 20260505121339 | 56 | 0.0 | 1.7 | 0.00 | 0.00 | 0.00 | 81 | 1012.6 | |
| 20260505120338 | 56 | 30 | 1.7 | 5.2 | 0.00 | 0.00 | 0.00 | 82 | 1012.6 |
| 20260505115336 | 55 | 83 | 1.7 | 1.7 | 0.00 | 0.00 | 0.00 | 83 | 1012.6 |
| 20260505114335 | 55 | 0.0 | 1.7 | 0.00 | 0.00 | 0.00 | 82 | 1012.7 | |
| 20260505113334 | 55 | 13 | 0.9 | 1.7 | 0.00 | 0.00 | 0.00 | 83 | 1012.9 |
| 20260505112333 | 55 | 0.0 | 1.7 | 0.00 | 0.00 | 0.00 | 83 | 1012.8 | |
| 20260505111412 | 55 | 57 | 0.9 | 1.7 | 0.00 | 0.00 | 0.00 | 83 | 1012.7 |
| 20260505110411 | 55 | 0.0 | 0.9 | 0.00 | 0.00 | 0.00 | 83 | 1012.6 | |
| 20260505101324 | 54 | 60 | 0.9 | 3.5 | 0.00 | 0.00 | 0.00 | 84 | 1013.1 |
| 20260505100323 | 54 | 50 | 1.7 | 3.5 | 0.00 | 0.00 | 0.00 | 85 | 1013.0 |
| 20260505095322 | 53 | 6 | 1.7 | 1.7 | 0.00 | 0.00 | 0.00 | 85 | 1013.2 |
| 20260505094321 | 53 | 0 | 2.6 | 5.2 | 0.00 | 0.00 | 0.00 | 86 | 1013.3 |
| 20260505093319 | 53 | 264 | 0.9 | 1.7 | 0.00 | 0.00 | 0.00 | 86 | 1013.2 |
| 20260505092318 | 53 | 278 | 1.7 | 1.7 | 0.00 | 0.00 | 0.00 | 86 | 1013.3 |
| 20260505091317 | 53 | 316 | 1.7 | 1.7 | 0.00 | 0.00 | 0.00 | 86 | 1013.3 |
| 20260505090316 | 53 | 0.0 | 1.7 | 0.00 | 0.00 | 0.00 | 86 | 1013.3 | |
| 20260505085335 | 53 | 352 | 2.6 | 3.5 | 0.00 | 0.00 | 0.00 | 87 | 1013.3 |
| 20260505084313 | 53 | 10 | 1.7 | 1.7 | 0.00 | 0.00 | 0.00 | 87 | 1013.2 |
| 20260505083312 | 53 | 0.0 | 0.9 | 0.00 | 0.00 | 0.00 | 88 | 1013.1 | |
| 20260505082311 | 52 | 285 | 0.9 | 3.5 | 0.00 | 0.00 | 0.00 | 89 | 1013.0 |
| 20260505081310 | 52 | 13 | 1.7 | 3.5 | 0.00 | 0.00 | 0.00 | 89 | 1013.1 |
| 20260505080309 | 51 | 0.0 | 1.7 | 0.00 | 0.00 | 0.00 | 89 | 1013.2 | |
| 20260505075327 | 51 | 287 | 0.9 | 1.7 | 0.00 | 0.00 | 0.00 | 89 | 1013.1 |
| 20260505074346 | 51 | 17 | 4.3 | 5.2 | 0.00 | 0.00 | 0.00 | 90 | 1013.3 |
| 20260505073305 | 51 | 67 | 0.9 | 2.6 | 0.00 | 0.00 | 0.00 | 90 | 1013.1 |
| 20260505072344 | 51 | 11 | 2.6 | 2.6 | 0.00 | 0.00 | 0.00 | 91 | 1013.1 |
| 20260505071303 | 51 | 335 | 3.5 | 3.5 | 0.00 | 0.00 | 0.00 | 91 | 1013.2 |
| 20260505070301 | 51 | 3 | 1.7 | 2.6 | 0.00 | 0.00 | 0.00 | 92 | 1013.2 |
| 20260505065300 | 51 | 333 | 3.5 | 4.3 | 0.00 | 0.00 | 0.00 | 92 | 1013.1 |
| 20260505064259 | 51 | 257 | 1.7 | 3.5 | 0.00 | 0.00 | 0.00 | 92 | 1013.4 |
| 20260505063258 | 50 | 335 | 2.6 | 3.5 | 0.00 | 0.00 | 0.00 | 93 | 1013.3 |
| 20260505062336 | 50 | 281 | 3.5 | 3.5 | 0.00 | 0.00 | 0.00 | 93 | 1013.3 |
| 20260505061255 | 50 | 306 | 1.7 | 2.6 | 0.00 | 0.00 | 0.00 | 93 | 1013.5 |
| 20260505060254 | 50 | 265 | 0.9 | 2.6 | 0.00 | 0.00 | 0.00 | 93 | 1013.6 |
| 20260505055253 | 50 | 338 | 1.7 | 2.6 | 0.00 | 0.00 | 0.00 | 93 | 1013.6 |
| 20260505054251 | 50 | 11 | 3.5 | 3.5 | 0.00 | 0.00 | 0.00 | 93 | 1013.6 |
| 20260505053250 | 50 | 0.0 | 4.3 | 0.00 | 0.00 | 0.00 | 93 | 1013.7 | |
| 20260505052249 | 50 | 1 | 2.6 | 3.5 | 0.00 | 0.00 | 0.00 | 93 | 1013.4 |
| 20260505051248 | 50 | 0.0 | 1.7 | 0.00 | 0.00 | 0.00 | 93 | 1013.4 | |
| 20260505050247 | 50 | 16 | 2.6 | 3.5 | 0.00 | 0.00 | 0.00 | 93 | 1013.4 |
| 20260505041241 | 51 | 19 | 2.6 | 5.2 | 0.00 | 0.00 | 0.00 | 93 | 1013.1 |
| 20260505040240 | 51 | 26 | 4.3 | 4.3 | 0.00 | 0.00 | 0.00 | 92 | 1013.1 |
| 20260505035238 | 51 | 344 | 2.6 | 3.5 | 0.00 | 0.00 | 0.00 | 92 | 1013.2 |
| 20260505034237 | 51 | 190 | 0.9 | 1.7 | 0.00 | 0.00 | 0.00 | 92 | 1013.2 |
| 20260505033236 | 51 | 332 | 5.2 | 5.2 | 0.00 | 0.00 | 0.00 | 92 | 1013.2 |
| 20260505032235 | 51 | 348 | 0.9 | 1.7 | 0.00 | 0.00 | 0.00 | 92 | 1013.5 |
| 20260505031233 | 51 | 0.0 | 2.6 | 0.00 | 0.00 | 0.00 | 92 | 1013.3 | |
| 20260505030232 | 51 | 337 | 1.7 | 4.3 | 0.00 | 0.00 | 0.00 | 92 | 1013.3 |
| 20260505025311 | 51 | 259 | 1.7 | 3.5 | 0.00 | 0.00 | 0.00 | 92 | 1013.3 |
| 20260505024230 | 51 | 3 | 1.7 | 5.2 | 0.00 | 0.00 | 0.00 | 92 | 1013.4 |
| 20260505023229 | 51 | 3 | 5.2 | 7.0 | 0.00 | 0.00 | 0.00 | 92 | 1013.4 |
| 20260505022227 | 51 | 316 | 1.7 | 1.7 | 0.00 | 0.00 | 0.00 | 92 | 1013.3 |
| 20260505021226 | 52 | 327 | 3.5 | 3.5 | 0.00 | 0.00 | 0.00 | 92 | 1013.5 |
| 20260505020225 | 52 | 343 | 0.9 | 0.9 | 0.00 | 0.00 | 0.00 | 92 | 1013.6 |
| 20260505015224 | 52 | 347 | 1.7 | 1.7 | 0.00 | 0.00 | 0.00 | 92 | 1013.3 |
| 20260505014222 | 52 | 333 | 1.7 | 5.2 | 0.00 | 0.00 | 0.00 | 92 | 1013.5 |
| 20260505013221 | 52 | 335 | 1.7 | 3.5 | 0.00 | 0.00 | 0.00 | 92 | 1013.5 |
| 20260505012300 | 52 | 342 | 4.3 | 6.1 | 0.00 | 0.00 | 0.00 | 91 | 1013.8 |
| 20260505011219 | 52 | 350 | 1.7 | 3.5 | 0.00 | 0.00 | 0.00 | 91 | 1013.8 |
| 20260505010218 | 53 | 350 | 2.6 | 5.2 | 0.00 | 0.00 | 0.00 | 91 | 1013.8 |
| 20260505005256 | 53 | 346 | 4.3 | 4.3 | 0.00 | 0.00 | 0.00 | 91 | 1013.9 |
| 20260505004215 | 53 | 340 | 7.8 | 9.6 | 0.00 | 0.00 | 0.00 | 91 | 1013.7 |
| 20260505003214 | 53 | 208 | 1.7 | 3.5 | 0.00 | 0.00 | 0.00 | 91 | 1013.8 |
| 20260505002213 | 53 | 330 | 2.6 | 5.2 | 0.00 | 0.00 | 0.00 | 91 | 1013.9 |
| 20260505001211 | 53 | 332 | 4.3 | 4.3 | 0.00 | 0.00 | 0.00 | 92 | 1013.9 |
| 20260505000211 | 54 | 354 | 3.5 | 5.2 | 0.00 | 0.00 | 0.00 | 92 | 1013.9 |
| 20260504235209 | 54 | 354 | 2.6 | 3.5 | 0.00 | 0.00 | 0.00 | 92 | 1013.8 |
| 20260504234208 | 54 | 340 | 4.3 | 6.1 | 0.00 | 0.00 | 0.00 | 92 | 1014.1 |
| 20260504233227 | 54 | 332 | 6.1 | 7.0 | 0.00 | 0.00 | 0.00 | 92 | 1013.9 |
| 20260504232205 | 54 | 322 | 4.3 | 4.3 | 0.00 | 0.00 | 0.00 | 92 | 1014.1 |
| 20260504231204 | 54 | 351 | 6.1 | 7.0 | 0.00 | 0.00 | 0.00 | 92 | 1014.3 |
| 20260504230203 | 55 | 331 | 4.3 | 5.2 | 0.00 | 0.01 | 0.00 | 92 | 1014.3 |
| 20260504225202 | 55 | 341 | 3.5 | 5.2 | 0.00 | 0.01 | 0.00 | 92 | 1014.2 |